Location: Brachbach
(49.1847°N, 9.7240°E)
Time: 06:43:43
(UTC+00:00)

Oscar 11 - Visible Passes

Search period start: 17 March 2026 00:00
Search period end: 27 March 2026 00:00
Orbit: 590 x 602 km, 97.8° (Epoch: 16 March)

Date Brightness Start Highest point End Pass type
(mag) Time Alt. Az. Time Alt. Az. Time Alt. Az.
17 Mar 9.4 01:56:09 10° NE 01:58:52 18° E 01:58:52 18° E visible
17 Mar 7.1 03:30:58 10° N 03:35:01 50° WNW 03:35:33 47° W visible
18 Mar 9.1 02:05:47 10° NE 02:09:04 23° E 02:09:04 23° E visible
18 Mar 7.5 03:40:59 10° N 03:44:54 40° WNW 03:45:45 36° W visible
19 Mar 8.7 02:15:29 10° NE 02:19:07 28° E 02:19:15 28° E visible
19 Mar 7.8 03:51:02 10° N 03:54:47 32° WNW 03:55:56 28° W visible
20 Mar 8.3 02:25:15 10° NNE 02:29:06 35° E 02:29:27 34° ESE visible
20 Mar 8.1 04:01:07 10° N 04:04:38 27° WNW 04:06:07 21° W visible
21 Mar 7.9 02:35:03 10° NNE 02:39:04 43° E 02:39:38 41° ESE visible
21 Mar 8.3 04:11:14 10° NNW 04:14:28 22° WNW 04:16:19 17° W visible
22 Mar 7.5 02:44:54 10° NNE 02:49:01 55° E 02:49:49 47° SE visible
22 Mar 8.6 04:21:25 10° NNW 04:24:17 18° WNW 04:26:29 13° W visible
23 Mar 7.1 02:54:46 10° NNE 02:58:57 70° ESE 02:59:59 48° SSE visible
23 Mar 8.8 04:31:41 10° NNW 04:34:06 15° WNW 04:36:30 10° W visible
24 Mar 6.9 03:04:40 10° NNE 03:08:53 88° ESE 03:10:10 44° SSW visible
24 Mar 9.0 04:42:06 10° NNW 04:43:52 13° WNW 04:45:40 10° W visible
25 Mar 9.7 01:40:44 10° ENE 01:42:37 13° E 01:43:39 12° ESE visible
25 Mar 6.9 03:14:35 10° N 03:18:46 74° WNW 03:20:20 37° SSW visible
26 Mar 9.5 01:50:02 10° NE 01:52:39 16° E 01:53:48 14° ESE visible
26 Mar 7.0 03:24:32 10° N 03:28:39 58° WNW 03:30:30 30° SW visible
